User: anonymous   Login
Location: Geremba
(10.4250°N, 67.2394°W)
Time: 05:16:14
(UTC+00:00)
Language:

Cosmos 2341 Rocket - Orbit

View from above orbital plane
View from above orbital plane
View from above satellite
View from above satellite

Ground track
Ground track

The orbit data is extracted from the following two-line orbital elements,

1 24773U 97017B   24204.24235446  .00000108  00000-0  99480-4 0  9992
2 24773  82.9192 252.0538 0022999 293.3397 133.4994 13.73837285366485
Epoch (UTC): 22 July 2024 05:48:59
Eccentricity: 0.0022999
inclination: 82.9192°
perigee height: 969 km
apogee height: 1003 km
right ascension of ascending node: 252.0538°
argument of perigee: 293.3397°
revolutions per day: 13.73837285
mean anomaly at epoch: 133.4994°
orbit number at epoch: 36648

The dashed part of the orbit path shows where the satellite is in the earth's shadow,  

DLR